Weather in Nedryhailiv

Ukraine / Sumi District     50°50′02″N   33°52′51″E
temp.,
°C
wind,
m/s
gust,
m/s
humid.,
%
clouds,
%
prec.,
mm/h
press.,
hPa
HPBL,
m
19 april, mon
mon1900:00+5n3595100 0.1 1018222
03:00+5nne3791100 0.1 1017256
06:00+5n3592100 0.0 1017168
09:00+6nne248792 0.0 1017267
12:00+10n236265 0.1 1016986
15:00+11n3358100 0.1 10151200
18:00+10nne246935 0.1 1015564
21:00+6ne22815 0.1 101515
20 april, tue
tue2000:00+5nne228820 0.0 101423
03:00+4ne22918 0.0 101327
06:00+3ne229282 0.0 101229
09:00+8ne457393 0.0 1011390
12:00+12ene3467100 0.1 1008743
15:00+13ne6758100 0.5 10051550
18:00+10ne61085100 0.8 1003706
21:00+8n61090100 1.1 1003549
21 april, wed
wed2100:00+7nnw5990100 0.1 1003659
03:00+7wnw61089100 0.1 1005753
06:00+6wnw51084100 0.0 1007791
09:00+7w4783100 0.2 1009786
12:00+9w5768100 0.3 10111267
15:00+8wsw586971 0.5 10131077
18:00+10wsw576270 0.1 10131084
21:00+7ssw3575100 0.1 101588
22 april, thu
thu2200:00+6s41085100 0.0 1015184
03:00+6ssw4108298 0.0 1015236
06:00+5ssw398995 0.0 1016178
09:00+10ssw587387 0.1 1017403
12:00+14sw685869 1.3 10171314
15:00+15sw6855100 3.3 10171555
18:00+14sw486450 1.8 1017480
21:00+10s5108460 2.8 1018191
23 april, fri
fri2300:00+8s49895 0.3 1018153
03:00+7s411895 0.3 1018229
06:00+7s410915 0.0 1017224
09:00+11s7107453 0.0 1017481
12:00+16s810595 0.0 10161203
15:00+17ssw8114976 0.5 10142382
18:00+14ssw71168100 2.0 1014853
21:00+10wnw2590100 3.7 1015278